[[{"header":{"parameterUnit":"m.s-1","parameterCategory":1,"la1":30.2991,"la2":30.254,"lo1":-89.0895,"lo2":-89.0444,"dy":0.0017,"dx":0.0017,"nx":28,"ny":28,"refTime":"2025-04-16T21:00:00:Z","depth":0,"parameterNumber":2,"parameterNumberName":"U-component_of_WINDS"},"data":[0,0,0,0,0,0,0,0,0,0,0,0,0,0,0,0,0,0,0,0,0,0,0,0,0,0,0,0,0,0,0,0,0,0,0,0,0,0,0,0,0,0,0,0,0,0,0,0,0,0,0,0,0,0,0,0,0,0,-1.4265,-1.4266,0,-1.4384,-1.4385,-1.4387,-1.4432,-1.4432,-1.4432,-1.4431,-1.4556,-1.456,-1.4563,0,0,0,0,0,0,0,0,0,0,0,0,0,-1.4081,-1.4084,-1.4265,-1.4266,-1.4268,-1.4384,-1.4386,-1.4387,-1.4432,-1.4432,-1.4431,-1.4431,-1.4555,-1.4559,-1.4564,0,0,0,0,0,0,0,0,0,0,0,0,0,-1.4177,-1.4085,-1.4265,-1.4304,-1.4309,-1.4384,-1.4386,-1.4388,-1.4432,-1.4432,-1.4431,-1.4431,-1.4554,-1.4559,-1.4564,-1.4609,0,0,-1.4581,-1.4583,0,0,0,0,0,0,0,0,-1.4171,-1.4183,-1.4297,-1.4302,-1.4307,-1.4393,-1.4367,-1.4462,-1.4433,-1.4386,-1.4431,-1.4431,-1.4502,-1.4512,-1.4536,-1.4615,-1.462,-1.4582,-1.4585,-1.4587,-1.4589,0,0,0,0,0,0,0,-1.4164,-1.4179,-1.4312,-1.4299,-1.4305,-1.4318,-1.4331,-1.4385,-1.4446,-1.439,-1.4393,-1.4407,-1.4505,-1.453,-1.4539,-1.4622,-1.4581,-1.4586,-1.459,-1.4592,-1.4746,-1.4747,0,0,0,0,0,0,-1.4151,-1.4173,-1.4308,-1.4316,-1.4236,-1.4321,-1.4336,-1.4366,-1.4445,-1.4457,-1.4407,-1.4408,-1.4521,-1.4532,-1.4544,-1.4602,-1.4587,-1.4592,-1.4595,-1.4745,-1.4746,-1.4747,0,0,0,0,0,0,-1.4147,-1.4162,-1.4304,-1.4245,-1.4264,-1.4325,-1.4358,-1.4368,-1.4394,-1.4458,-1.447,-1.4421,-1.4521,-1.4536,-1.4593,-1.4607,-1.4595,-1.46,-1.4744,-1.4745,-1.4746,-1.4718,0,0,0,0,0,0,-1.4141,-1.4161,-1.4177,-1.4245,-1.4267,-1.4349,-1.4359,-1.4371,-1.4403,-1.4405,-1.4475,-1.4486,-1.4522,-1.4584,-1.4598,-1.4614,-1.4604,-1.4743,-1.4745,-1.4746,-1.4718,-1.4718,-1.4718,0,0,0,0,0,-1.4134,-1.4165,-1.4178,-1.4194,-1.4289,-1.435,-1.4363,-1.4403,-1.4403,-1.4421,-1.4463,-1.4483,-1.4603,-1.4589,-1.4606,-1.4624,-1.4742,-1.4744,-1.4746,-1.4718,-1.4718,-1.4718,0,0,0,0,0,0,-1.4098,-1.4174,-1.4189,-1.4243,-1.4289,-1.4357,-1.4381,-1.4402,-1.445,-1.4451,-1.45,-1.4515,-1.4568,-1.4602,-1.4585,-1.4672,-1.4674,-1.4679,-1.4648,-1.4648,-1.4649,-1.4639,-1.4609,0,0,0,0,0,-1.4095,-1.4137,-1.4203,-1.4244,-1.4266,-1.4319,-1.4348,-1.4375,-1.4425,-1.4446,-1.4492,-1.4541,-1.459,-1.4621,-1.467,-1.4724,-1.474,-1.4744,-1.4744,-1.4744,-1.4748,-1.478,-1.4783,-1.4753,-1.4753,-1.4753,0,0,-1.4092,-1.4139,-1.4163,-1.4237,-1.4277,-1.432,-1.4336,-1.4381,-1.4415,-1.4453,-1.4509,-1.4545,-1.4603,-1.4659,-1.4686,-1.4689,-1.476,-1.4746,-1.4746,-1.475,-1.4782,-1.4785,-1.4788,-1.4754,-1.4754,-1.4753,0,0,-1.4108,-1.4147,-1.4186,-1.4225,-1.4284,-1.4319,-1.4329,-1.4394,-1.4419,-1.4476,-1.4506,-1.4548,-1.463,-1.4671,-1.4703,-1.4736,-1.4756,-1.475,-1.4751,-1.4782,-1.4784,-1.4787,-1.4799,-1.4803,-1.4754,-1.4754,-1.4754,0,-1.4096,-1.4161,-1.4203,-1.4247,-1.428,-1.4316,-1.4356,-1.4393,-1.4465,-1.4488,-1.449,-1.4595,-1.4637,-1.4704,-1.4712,-1.4736,-1.4749,-1.4742,-1.478,-1.4783,-1.4786,-1.4798,-1.4803,-1.4753,-1.4753,-1.4753,-1.4753,0,-1.4145,-1.419,-1.4214,-1.4282,-1.4318,-1.436,-1.4409,-1.4441,-1.4465,-1.4501,-1.4559,-1.4611,-1.4671,-1.4689,-1.4714,-1.476,-1.476,-1.477,-1.4774,-1.4787,-1.4799,-1.4805,-1.4751,-1.4752,-1.4752,-1.4752,0,0,-1.414,-1.4231,-1.4239,-1.4271,-1.4339,-1.4376,-1.442,-1.4478,-1.4505,-1.4554,-1.4593,-1.4663,-1.4674,-1.471,-1.474,-1.4767,-1.4791,-1.4775,-1.4777,-1.4776,-1.4845,-1.4837,-1.4841,-1.4805,-1.4806,-1.4807,-1.4841,0,-1.4165,-1.4244,-1.4283,-1.4346,-1.4389,-1.4425,-1.4464,-1.4512,-1.4547,-1.459,-1.4629,-1.4678,-1.4688,-1.471,-1.4738,-1.4781,-1.4805,-1.478,-1.4843,-1.4845,-1.4827,-1.4848,-1.4839,-1.4868,-1.4846,-1.4847,-1.4847,0,-1.4204,-1.4252,-1.4319,-1.4383,-1.4403,-1.4437,-1.4494,-1.4534,-1.4589,-1.4613,-1.4654,-1.4683,-1.4733,-1.4733,-1.4803,-1.4785,-1.4813,-1.4839,-1.4841,-1.4848,-1.4846,-1.4856,-1.4878,-1.4883,-1.4855,-1.4855,-1.4854,0,-1.4194,-1.4276,-1.4327,-1.4353,-1.4429,-1.4452,-1.4486,-1.454,-1.4573,-1.4623,-1.4645,-1.4701,-1.4732,-1.4775,-1.4819,-1.4815,-1.4886,-1.4889,-1.4908,-1.4907,-1.4921,-1.4919,-1.4948,-1.4939,-1.4939,-1.4939,-1.4939,0,-1.4218,-1.4258,-1.4323,-1.4354,-1.4401,-1.4446,-1.4491,-1.4528,-1.4576,-1.4616,-1.4651,-1.4688,-1.4744,-1.4789,-1.4824,-1.4877,-1.4891,-1.4913,-1.4922,-1.491,-1.4907,-1.4929,-1.4928,-1.494,-1.494,-1.494,-1.4939,0,-1.4215,-1.426,-1.4318,-1.4385,-1.4403,-1.4434,-1.4493,-1.4526,-1.4563,-1.4613,-1.4628,-1.4686,-1.4741,-1.4789,-1.4862,-1.4886,-1.4941,-1.4951,-1.4921,-1.4926,-1.4942,-1.494,-1.4986,-1.4995,-1.4979,-1.498,-1.498,0,-1.4227,-1.4258,-1.4329,-1.4358,-1.439,-1.4436,-1.4469,-1.4516,-1.455,-1.4616,-1.4641,-1.4698,-1.4746,-1.4832,-1.4882,-1.4938,-1.4951,-1.4963,-1.4959,-1.4947,-1.4951,-1.4949,-1.4953,-1.4963,-1.4962,-1.4962,-1.4962,0,-1.4244,-1.4265,-1.4311,-1.4366,-1.4404,-1.445,-1.4496,-1.4518,-1.4575,-1.4611,-1.4667,-1.4704,-1.4778,-1.4835,-1.4896,-1.4932,-1.4957,-1.4963,-1.4971,-1.4959,-1.494,-1.4951,-1.4921,-1.4962,-1.4962,-1.4962,-1.4962,-1.4962,-1.425,-1.4279,-1.4334,-1.4384,-1.4424,-1.4467,-1.4501,-1.4542,-1.4589,-1.4652,-1.4678,-1.4735,-1.4791,-1.4876,-1.4912,-1.4958,-1.4963,-1.4973,-1.4976,-1.4978,-1.4976,-1.4932,-1.497,-1.497,-1.497,-1.497,-1.497,0,-1.4269,-1.4306,-1.4352,-1.4415,-1.4456,-1.4474,-1.4527,-1.456,-1.4609,-1.4659,-1.4705,-1.477,-1.4826,-1.488,-1.4939,-1.4965,-1.4978,-1.4979,-1.4978,-1.4986,-1.4969,-1.4956,-1.4968,-1.4968,-1.4968,-1.4968,-1.4968,-1.4968,-1.4284,-1.4335,-1.4363,-1.4435,-1.4472,-1.4527,-1.4556,-1.4596,-1.4636,-1.4706,-1.4752,-1.4787,-1.4839,-1.4902,-1.4954,-1.4969,-1.4989,-1.4987,-1.5005,-1.4988,-1.4987,-1.4987,-1.4976,-1.4991,-1.4991,-1.5019,-1.5019,-1.5019]},{"header":{"parameterUnit":"m.s-1","parameterCategory":1,"la1":30.2991,"la2":30.254,"lo1":-89.0895,"lo2":-89.0444,"dy":0.0017,"dx":0.0017,"nx":28,"ny":28,"refTime":"2025-04-16T21:00:00:Z","depth":0,"parameterNumber":3,"parameterNumberName":"V-component_of_WINDS"},"data":[0,0,0,0,0,0,0,0,0,0,0,0,0,0,0,0,0,0,0,0,0,0,0,0,0,0,0,0,0,0,0,0,0,0,0,0,0,0,0,0,0,0,0,0,0,0,0,0,0,0,0,0,0,0,0,0,0,0,6.1846,6.1847,0,6.1903,6.1904,6.1904,6.1828,6.1826,6.1823,6.182,6.1873,6.1877,6.1881,0,0,0,0,0,0,0,0,0,0,0,0,0,6.1666,6.1669,6.1846,6.1847,6.1848,6.1903,6.1904,6.1904,6.1829,6.1825,6.1822,6.1819,6.1872,6.1876,6.1881,0,0,0,0,0,0,0,0,0,0,0,0,0,6.1735,6.1671,6.1846,6.1817,6.1815,6.1903,6.1904,6.1905,6.1829,6.1825,6.1821,6.1817,6.187,6.1876,6.1882,6.2,0,0,6.19,6.1902,0,0,0,0,0,0,0,0,6.1732,6.1742,6.182,6.1819,6.1817,6.1855,6.1859,6.1936,6.183,6.1824,6.182,6.1815,6.187,6.1875,6.1895,6.2002,6.2004,6.19,6.1904,6.1906,6.1908,0,0,0,0,0,0,0,6.1727,6.1739,6.1868,6.1821,6.1819,6.1798,6.1804,6.1873,6.1869,6.1824,6.1819,6.1827,6.1868,6.1889,6.1895,6.2005,6.19,6.1905,6.1909,6.1911,6.2209,6.2213,0,0,0,0,0,0,6.1726,6.1736,6.1867,6.187,6.1763,6.1805,6.1811,6.1846,6.1868,6.1867,6.183,6.1823,6.1881,6.1889,6.1897,6.2035,6.1906,6.1912,6.1915,6.2205,6.221,6.2215,0,0,0,0,0,0,6.1723,6.1739,6.1864,6.1802,6.1816,6.1813,6.1853,6.185,6.1871,6.1872,6.1871,6.1853,6.1878,6.1889,6.1974,6.2035,6.1914,6.192,6.22,6.2207,6.2213,6.2312,0,0,0,0,0,0,6.1718,6.1738,6.1784,6.1803,6.182,6.1943,6.1857,6.1854,6.1882,6.1873,6.1894,6.1893,6.1876,6.1966,6.198,6.2041,6.1924,6.2194,6.2203,6.221,6.2303,6.2321,6.2337,0,0,0,0,0,6.1712,6.1809,6.1787,6.1803,6.1878,6.1947,6.1956,6.1936,6.1887,6.1933,6.1933,6.1892,6.2027,6.1976,6.1991,6.2055,6.219,6.22,6.221,6.2296,6.2318,6.2336,0,0,0,0,0,0,6.1796,6.1811,6.1787,6.1894,6.192,6.1934,6.199,6.196,6.1999,6.1988,6.196,6.1965,6.2057,6.2064,6.2007,6.2169,6.21,6.2114,6.216,6.2181,6.2197,6.2193,6.1929,0,0,0,0,0,6.1828,6.1884,6.1894,6.1987,6.2002,6.1994,6.2023,6.2006,6.2031,6.2041,6.2047,6.2072,6.2119,6.2151,6.2194,6.2305,6.2306,6.2356,6.2372,6.2386,6.2397,6.2454,6.2475,6.2247,6.2247,6.2247,0,0,6.1892,6.1908,6.1945,6.2004,6.2022,6.2079,6.2004,6.2068,6.2109,6.205,6.2131,6.2137,6.2162,6.226,6.2303,6.2269,6.2461,6.2399,6.241,6.2413,6.2466,6.2488,6.2507,6.2254,6.2253,6.2252,0,0,6.2039,6.2058,6.2136,6.2156,6.2185,6.2179,6.2198,6.2217,6.2219,6.2301,6.2257,6.2305,6.2388,6.2407,6.2427,6.258,6.2543,6.2595,6.2682,6.2737,6.2755,6.2771,6.2823,6.2842,6.2607,6.2607,6.2607,0,6.2115,6.2201,6.218,6.2248,6.2274,6.2225,6.2303,6.2322,6.2363,6.2381,6.2343,6.2445,6.2458,6.2559,6.2596,6.2616,6.2634,6.2592,6.2754,6.277,6.2784,6.2834,6.2854,6.2613,6.2613,6.2612,6.2611,0,6.2292,6.2353,6.2413,6.2455,6.2488,6.2561,6.2548,6.2584,6.2563,6.2561,6.2643,6.2658,6.2703,6.2726,6.2706,6.2823,6.2801,6.2759,6.2689,6.2812,6.2858,6.2877,6.2622,6.262,6.2618,6.2616,0,0,6.2493,6.2523,6.2545,6.2563,6.2591,6.2636,6.2705,6.275,6.278,6.281,6.2866,6.2937,6.2898,6.2921,6.2903,6.2952,6.307,6.2904,6.2904,6.2932,6.3197,6.3227,6.325,6.3046,6.305,6.3053,6.3194,0,6.2638,6.276,6.2742,6.2858,6.2912,6.2866,6.2925,6.2948,6.2947,6.2991,6.299,6.304,6.2986,6.2999,6.3046,6.3046,6.3122,6.3035,6.3095,6.3097,6.3088,6.3274,6.3306,6.3439,6.3212,6.3215,6.3218,0,6.2824,6.2862,6.2983,6.3001,6.3023,6.3078,6.3117,6.316,6.3184,6.318,6.3206,6.3178,6.3245,6.3176,6.3265,6.3207,6.323,6.3233,6.3238,6.3241,6.3164,6.328,6.3482,6.3501,6.3246,6.3244,6.3242,0,6.2956,6.3037,6.3119,6.3136,6.316,6.3199,6.321,6.323,6.3258,6.3291,6.3309,6.335,6.3372,6.3403,6.3386,6.3338,6.3478,6.3408,6.3475,6.3475,6.3505,6.3503,6.3711,6.3524,6.3523,6.3523,6.3523,0,6.3118,6.3194,6.3179,6.323,6.3312,6.329,6.3372,6.3377,6.3395,6.3444,6.3406,6.3453,6.3429,6.3473,6.3461,6.3536,6.3546,6.3543,6.3538,6.3545,6.3546,6.3559,6.3548,6.3528,6.3527,6.3526,6.3525,0,6.3279,6.3272,6.3359,6.3374,6.338,6.344,6.3452,6.3498,6.3495,6.3557,6.357,6.3565,6.3615,6.3602,6.3656,6.3647,6.3741,6.3726,6.3734,6.3729,6.3796,6.3789,6.4018,6.4046,6.3843,6.3845,6.3846,0,6.3383,6.344,6.3462,6.3493,6.3507,6.3558,6.3586,6.3566,6.3597,6.3628,6.367,6.3717,6.3753,6.3834,6.3834,6.3874,6.3858,6.3936,6.3864,6.3869,6.3857,6.3853,6.3857,6.3949,6.3952,6.3954,6.3955,0,6.3566,6.356,6.3604,6.3646,6.3681,6.3713,6.3742,6.3769,6.3751,6.3787,6.3838,6.3867,6.3922,6.3968,6.4005,6.4014,6.3981,6.3978,6.3995,6.4002,6.4004,6.4001,6.377,6.3972,6.3971,6.3969,6.3969,6.3968,6.37,6.3748,6.3771,6.382,6.3839,6.3866,6.391,6.3912,6.3955,6.4,6.3985,6.4043,6.4063,6.411,6.4124,6.4167,6.4138,6.4163,6.4169,6.4175,6.4183,6.3998,6.4174,6.4174,6.4173,6.4173,6.4172,0,6.388,6.3892,6.3938,6.3979,6.4017,6.3985,6.4014,6.4047,6.4099,6.4122,6.4158,6.4216,6.426,6.4264,6.4305,6.4339,6.4325,6.435,6.4346,6.4348,6.4208,6.4188,6.4361,6.4361,6.4361,6.4361,6.4361,6.4361,6.3978,6.4057,6.4053,6.414,6.4151,6.4209,6.4228,6.4252,6.4269,6.4336,6.4373,6.4375,6.4389,6.4431,6.4469,6.4469,6.4485,6.4516,6.4509,6.4377,6.4359,6.4341,6.4322,6.452,6.452,6.4646,6.4647,6.4648]}]]